Regional Weather Roundup
Issued by NWS

Home | Current Version | Previous Version | Text Only | Print | Product List | Glossary Off
Versions: 1 2 3 4 5 6 7 8 9 10 11 12 13 14 15 16 17 18 19 20 21 22 23 24 25 26 27 28 29 30 31 32 33 34 35 36 37 38 39 40 41 42 43 44 45 46 47 48 49 50

000
ASUS43 KMPX 211201
RWRMN
WEATHER ROUNDUP FOR MINNESOTA
NATIONAL WEATHER SERVICE TWIN CITIES/CHANHASSEN MN
600 AM CST TUE FEB 21 2017


NOTE: "FAIR" INDICATES FEW OR NO CLOUDS BELOW 12,000 FEET WITH NO
SIGNIFICANT WEATHER AND/OR OBSTRUCTIONS TO VISIBILITY. N/A MEANS
CURRENT SKY AND/OR WEATHER CONDITIONS ARE NOT AVAILABLE.

MNZ060>063-068>070-211300-
   Twin Cities Metro

CITY           SKY/WX    TMP DP  RH WIND       PRES   REMARKS
TWIN CITIES    PTCLDY    35  33  92 S5        29.90R FOG     WCI  31
6HR MIN TEMP:  34; 6HR MAX TEMP:  41;

ST PAUL        PTCLDY    32  32 100 SE5       29.91R FOG     WCI  27
CRYSTAL        FOG      N/A N/A N/A S3        29.87S VSB 1/4
BLAINE         FOG       34  34 100 S3        29.88S VSB 1/4
LAKEVILLE      FOG       30  30 100 CALM      29.90R VSB 1/4
EDEN PRAIRIE   FOG       32  31  96 CALM      29.88S VSB 1/4
6HR MIN TEMP:  31; 6HR MAX TEMP:  40;

SOUTH ST PAUL  PTCLDY    31  31 100 CALM      29.90S FOG
LAKE ELMO      FOG       36  36 100 S5        29.90S VSB 1
$$
MNZ001>005-007-008-013>017-022>024-027-028-211300-
   Northwest Minnesota

CITY           SKY/WX    TMP DP  RH WIND       PRES   REMARKS
BEMIDJI        CLOUDY    30  30 100 S3        29.77R FOG
HALLOCK        MIX PCPN  34  32  93 CALM      29.73F VSB 1/4
ROSEAU         CLOUDY    30  27  86 CALM      29.75R FOG
WARROAD        CLOUDY    30  27  86 S3        29.74S FOG
THIEF RVR FALL PTCLDY    32  31  96 SW9       29.77R FOG     WCI  24
CROOKSTON      PTCLDY    32  32 100 CALM      29.76S FOG
FOSSTON        CLOUDY    30  30 100 S6        29.77S FOG     WCI  24
DETROIT LAKES  CLEAR     32  32 100 SE6       29.78F FOG     WCI  26
MOORHEAD       CLOUDY    32  30  93 SE6       29.77F WCI  26
PARK RAPIDS    MOCLDY    31  28  89 S5        29.79R FOG     WCI  26
MAHNOMEN       FAIR      32  31  98 S7        29.77S WCI  26
$$
MNZ006-009>011-018-025>026-211300-
   North Central Minnesota

CITY           SKY/WX    TMP DP  RH WIND       PRES   REMARKS
BAUDETTE       CLOUDY    31  31 100 CALM      29.74F FOG
FLAG ISLAND    CLOUDY    32  30  93 SW6       29.72S WCI  26
INTL FALLS     CLOUDY    33  31  92 W5        29.75S WCI  29
6HR MIN TEMP:  33; 6HR MAX TEMP:  35;

WASKISH        FOG       32  32 100 SW5       29.76R VSB 3/4 WCI  27
BIG FORK       CLOUDY    34  32  93 SW3       29.76F FOG
LONGVILLE      FOG       32  32 100 S5        29.79S VSB 1/2 WCI  27
GRAND RAPIDS   CLOUDY    33  32  96 SW3       29.81S FOG
CRANE LAKE     CLOUDY    34  30  86 CALM      29.78R
ORR            CLOUDY    34  30  86 CALM      29.75R
COOK           CLOUDY    34  32  93 W8        29.78R WCI  27
WALKER         CLOUDY    31  31  99 SW7       29.78S FOG     WCI  24
$$
MNZ012-019>021-037-211300-
   Northeast Minnesota

CITY           SKY/WX    TMP DP  RH WIND       PRES   REMARKS
DULUTH         CLOUDY    34  33  96 W15       29.79R WCI  24
6HR MIN TEMP:  34; 6HR MAX TEMP:  39;

ELY            CLOUDY    34  30  86 W8G18     29.75S WCI  27
HIBBING        CLOUDY    32  32 100 VRB3      29.78R FOG
EVELETH        CLOUDY    34  32  94 W7        29.80R WCI  28
DULUTH HARBOR  PTCLDY    36  34  93 SW3       29.83R
TWO HARBORS    CLOUDY    37  34  87 W8        29.77R
SILVER BAY     PTCLDY    36  34  93 SW3       29.76R
GRAND MARAIS     N/A     37  33  85 SW12G17   29.72R
G MARAIS ARPRT CLOUDY    30  28  93 W8G16     29.70R WCI  23
$$
MNZ029>031-032-039>041-046>048-054>057-064-211300-
   West Central Minnesota

CITY           SKY/WX    TMP DP  RH WIND       PRES   REMARKS
FERGUS FALLS   CLEAR     34  34 100 SE8       29.82F WCI  27
WHEATON        PTCLDY    34  30  86 E8        29.79F WCI  27
MORRIS         CLOUDY    34  32  93 SE10      29.80F WCI  26
ALEXANDRIA     CLOUDY    30  30 100 S5        29.82F WCI  25
ELBOW LAKE     FAIR      33  32  96 E7        29.79F WCI  26
WADENA         CLEAR     28  28 100 SE3       29.80F FOG
GLENWOOD       PTCLDY    30  30 100 S3        29.83F FOG
APPLETON       CLEAR     34  30  86 SE5       29.81F WCI  30
BENSON           N/A     30  27  86 CALM      29.84S FOG
ORTONVILLE     CLEAR     36  30  80 SE8       29.79F
WILLMAR        FAIR      32  32 100 SE5       29.86F FOG     WCI  27
$$
MNZ033>034-036-042>043-049>051-058-059-211300-
   Central Minnesota

CITY           SKY/WX    TMP DP  RH WIND       PRES   REMARKS
ST CLOUD       PTCLDY    31  31 100 SE3       29.85F FOG
6HR MIN TEMP:  29; 6HR MAX TEMP:  37;

SAUK CENTRE    FAIR      28  28 100 CALM      29.84S FOG
PAYNESVILLE    PTCLDY    32  32 100 CALM      29.85S FOG
AITKIN         FOG       36  30  80 SW8       29.82S VSB 1/2
PINE RIVER     FOG       32  32 100 S6        29.85S VSB 1/2 WCI  26
BRAINERD       FOG       31  31 100 S7        29.83S VSB 1/4 WCI  24
STAPLES        FOG       28  28 100 CALM      29.81F VSB 1/2
LONG PRAIRIE   FAIR      28  28 100 S5        29.84S FOG     WCI  23
LITTLE FALLS   FOG       32  30  93 E3        29.84F VSB 1/4
LITCHFIELD       N/A     32  32 100 CALM      29.86F FOG
BUFFALO        FOG       32  31  96 CALM      29.88S VSB 1/4
MAPLE LAKE     FOG       32  32 100 CALM      29.87F VSB 1/4
HUTCHINSON     CLOUDY    32  32 100 S3        29.88S FOG
$$
MNZ037-044-045-052-053-211300-
   East Central Minnesota

CITY           SKY/WX    TMP DP  RH WIND       PRES   REMARKS
PRINCETON      FOG       34  30  86 CALM      29.87S VSB 1/4
MORA           CLOUDY    32  32 100 SW3       29.88R FOG
CAMBRIDGE      FOG       34  34 100 S3        29.86R VSB 1/4
RUSH CITY      FOG       32  32 100 S5        29.87S VSB 1/4 WCI  27
MOOSE LAKE     CLOUDY    34  32  93 SW5       29.83R FOG     WCI  30
HINCKLEY       CLOUDY    32  32 100 S3        29.85S FOG
CLOQUET        CLOUDY    34  32  93 SW5       29.81R FOG     WCI  30
MCGREGOR       CLOUDY    34  32  93 SW8       29.83R VSB 1/2 WCI  27
$$
MNZ071>073-080-081-089-090-097-098-211300-
   Southwest Minnesota

CITY           SKY/WX    TMP DP  RH WIND       PRES   REMARKS
MONTEVIDEO     CLEAR     34  34 100 S6        29.86S WCI  29
GRANITE FALLS  CLEAR     34  32  92 S7        29.87R WCI  28
CANBY          CLEAR     40  33  76 SE6       29.81F
MARSHALL       CLEAR     37  33  85 SE7       29.85F
REDWOOD FALLS  CLEAR     32  29  88 S6        29.86F WCI  26
OLIVIA         CLEAR     34  32  93 S6        29.85F WCI  29
PIPESTONE      CLEAR     37  34  87 S12       29.85F
WINDOM         CLEAR     34  34 100 S7        29.89S WCI  28
WORTHINGTON    CLEAR     36  35  96 SW12      29.90S
JACKSON        CLEAR     32  32 100 S6        29.90F FOG     WCI  26
TRACY          CLEAR     39  35  86 SW13      29.86F
SLAYTON        CLEAR     35  35  99 S12       29.88S WCI  27
$$
MNZ065>067-074>077-082>085-091>093-211300-
   South Central Minnesota

CITY           SKY/WX    TMP DP  RH WIND       PRES   REMARKS
MANKATO          N/A     33  32  96 S5        29.91R WCI  29
NEW ULM        CLEAR     32  30  93 CALM      29.88F
ST JAMES       CLEAR     34  32  93 S3        29.90F
FAIRMONT       CLEAR     34  33  96 CALM      29.91R
GLENCOE        CLEAR     33  34 100 S3        29.88R FOG
FARIBAULT      SNOW      32  32 100 CALM      29.91S VSB 1/4
OWATONNA       CLEAR     34  32  93 SE7       29.90F FOG     WCI  28
WASECA         CLEAR     32  32 100 CALM      29.91F FOG
ALBERT LEA     FOG       34  34 100 S3        29.90F VSB 1/4
$$
MNZ078>079-086>088-094>096-211300-
   Southeast Minnesota

CITY           SKY/WX    TMP DP  RH WIND       PRES   REMARKS
ROCHESTER      FOG       34  34 100 SW5       29.91S VSB 1/2 WCI  30
6HR MIN TEMP:  33; 6HR MAX TEMP:  41; 6HR PCP: TRACE;

RED WING       FOG       32  30  93 CALM      29.91R VSB 3/4
STANTON        FOG       34  32  94 S3        29.90S VSB 1/4
WINONA         MOCLDY    36  34  93 CALM      29.94R
AUSTIN         FOG       30  28  93 CALM      29.92R VSB 1/4
PRESTON        CLEAR     35  33  95 SW3       29.93R FOG
$$
ABBREVIATIONS USED IN REMARKS
   TC - TEMPERATURES IN CELSIUS
  WCI - WIND CHILL INDEX
   HX - HEAT INDEX
  VSB - VISIBILITY
$$



USA.gov is the U.S. government's official web portal to all federal, state and local government web resources and services.